FW3105 Weather Reports


time (UTC)temp
C
wind
direction
speed
KPH
gust
KPH
rain 1hr
cm
rain 24hr
cm
rain mn
cm
humidity
%
barometer
mb
20260505124514 3 220 8.0 17.7 0.10 0.43 0.15 74 1005.9
20260505123011 3 158 1.6 9.7 0.08 0.41 0.13 73 1005.5
20260505121509 3 205 3.2 11.3 0.05 0.36 0.08 73 1005.6
20260505120012 3 112 3.2 12.9 0.05 0.33 0.05 73 1005.3
20260505114504 5 177 3.2 9.7 0.05 0.33 0.05 73 1005.3
20260505113112 5 126 6.4 14.5 0.05 0.33 0.05 73 1005.1
20260505111554 5 142 1.6 9.7 0.03 0.30 0.03 73 1004.9
20260505101546 6 221 0.0 3.2 0.00 0.28 0.00 72 1004.3
20260505100050 6 221 0.0 3.2 0.00 0.28 0.00 72 1004.2
20260505094545 6 244 0.0 3.2 0.00 0.28 0.00 71 1004.0
20260505093046 6 244 0.0 3.2 0.00 0.28 0.00 71 1004.3
20260505091559 6 244 0.0 6.4 0.00 0.28 0.00 71 1004.3
20260505090043 6 244 0.0 4.8 0.00 0.28 0.00 71 1004.3
20260505084537 6 244 1.6 8.0 0.00 0.28 0.00 72 1004.1
20260505083035 7 240 0.0 3.2 0.00 0.28 0.00 72 1004.1
20260505081538 7 154 1.6 4.8 0.00 0.28 0.00 72 1004.6
20260505080035 7 153 0.0 0.0 0.00 0.28 0.00 71 1004.9
20260505074529 7 154 0.0 3.2 0.00 0.28 0.00 71 1004.9
20260505073030 7 154 0.0 3.2 0.00 0.28 0.00 71 1005.3
20260505071526 7 154 1.6 8.0 0.00 0.28 0.00 71 1005.2
20260505070024 7 153 0.0 4.8 0.00 0.28 0.00 71 1005.6
20260505064521 7 153 1.6 3.2 0.03 0.28 0.00 71 1005.6
20260505063021 7 153 0.0 0.0 0.03 0.28 0.00 70 1005.6
20260505061521 7 153 0.0 0.0 0.08 0.28 0.00 70 1005.6
20260505060017 7 153 0.0 0.0 0.13 0.28 0.28 70 1005.7
20260505054513 7 153 0.0 3.2 0.10 0.25 0.25 70 1005.6
20260505053009 7 153 0.0 4.8 0.13 0.25 0.25 69 1005.6
20260505051508 7 153 0.0 3.2 0.10 0.20 0.20 68 1005.8
20260505041550 9 134 0.0 3.2 0.10 0.10 0.10 62 1005.7
20260505040041 10 134 0.0 4.8 0.08 0.08 0.08 59 1005.7
20260505034537 10 79 1.6 9.7 0.03 0.03 0.03 54 1005.6
20260505033032 10 213 0.0 3.2 0.00 0.00 0.00 45 1005.1
20260505031524 11 214 0.0 0.0 0.00 0.00 0.00 44 1004.8
20260505030020 11 214 0.0 0.0 0.00 0.00 0.00 43 1004.5
20260505024515 11 214 0.0 3.2 0.00 0.00 0.00 44 1004.3
20260505023011 11 214 1.6 8.0 0.00 0.00 0.00 44 1004.0
20260505021506 11 186 1.6 6.4 0.00 0.00 0.00 41 1003.9
20260505020006 12 134 0.0 3.2 0.00 0.00 0.00 42 1003.9
20260505014558 12 153 1.6 8.0 0.00 0.00 0.00 40 1003.4
20260505013102 12 147 3.2 11.3 0.00 0.00 0.00 40 1003.4
20260505011551 13 153 3.2 11.3 0.00 0.00 0.00 35 1003.4
20260505010058 13 82 1.6 14.5 0.00 0.00 0.00 31 1003.3
20260505004539 14 164 4.8 14.5 0.00 0.00 0.00 29 1003.0
20260505003035 14 355 1.6 8.0 0.00 0.00 0.00 29 1002.9
20260505001532 14 346 3.2 8.0 0.00 0.00 0.00 28 1002.7
20260505000026 15 326 9.7 20.9 0.00 0.00 0.00 26 1002.6
20260504234522 16 299 3.2 16.1 0.00 0.00 0.00 22 1002.5
20260504233018 16 206 1.6 12.9 0.00 0.00 0.00 21 1002.3
20260504231513 16 211 12.9 25.7 0.00 0.00 0.00 21 1001.9
20260504230012 17 199 4.8 11.3 0.00 0.00 0.00 19 1001.1
20260504224511 18 187 4.8 17.7 0.00 0.00 0.00 16 1000.9
20260504223009 19 165 1.6 9.7 0.00 0.00 0.00 12 1000.8
20260504221504 20 192 1.6 8.0 0.00 0.00 0.00 12 1000.7
20260504220100 20 116 1.6 6.4 0.00 0.00 0.00 12 1000.6
20260504214557 20 133 3.2 12.9 0.00 0.00 0.00 11 1000.7
20260504213052 21 156 1.6 9.7 0.00 0.00 0.00 12 1000.8
20260504211546 21 174 3.2 11.3 0.00 0.00 0.00 13 1000.9
20260504210045 21 163 3.2 12.9 0.00 0.00 0.00 11 1001.1
20260504204546 21 184 3.2 9.7 0.00 0.00 0.00 13 1001.0
20260504203050 20 217 1.6 8.0 0.00 0.00 0.00 14 1001.3
20260504201533 20 158 3.2 14.5 0.00 0.00 0.00 11 1001.5
20260504200028 20 150 4.8 14.5 0.00 0.00 0.00 12 1001.4
20260504194522 20 192 3.2 11.3 0.00 0.00 0.00 11 1001.5
20260504193019 20 125 3.2 12.9 0.00 0.00 0.00 12 1001.6
20260504191522 20 188 3.2 14.5 0.00 0.00 0.00 13 1001.3
20260504190009 20 105 4.8 17.7 0.00 0.00 0.00 11 1001.3
20260504184504 21 149 1.6 11.3 0.00 0.00 0.00 8 1001.2
20260504183100 23 147 1.6 6.4 0.00 0.00 0.00 4 1001.4
20260504181557 24 103 1.6 11.3 0.00 0.00 0.00 5 1001.6
20260504180051 23 92 1.6 14.5 0.00 0.00 0.00 8 1001.9
20260504174546 23 338 6.4 12.9 0.00 0.00 0.00 7 1002.1
20260504173044 23 68 4.8 11.3 0.00 0.00 0.00 7 1002.4
20260504171540 22 26 1.6 14.5 0.00 0.00 0.00 9 1002.7